Regional Weather Roundup
Issued by NWS

Home | Current Version | Previous Version | Text Only | Print | Product List | Glossary Off
Versions: 1 2 3 4 5 6 7 8 9 10 11 12 13 14 15 16 17 18 19 20 21 22 23 24 25 26 27 28 29 30 31 32 33 34 35 36 37 38 39 40 41 42 43 44 45 46 47 48 49 50

000
ASUS43 KFSD 212002
RWRSD

WEATHER ROUNDUP FOR SOUTH DAKOTA
NATIONAL WEATHER SERVICE SIOUX FALLS SD
300 PM CDT TUE OCT 21 2014

NOTE: "FAIR" INDICATES FEW OR NO CLOUDS BELOW 12,000 FEET WITH NO
SIGNIFICANT WEATHER AND/OR OBSTRUCTIONS TO VISIBILITY.


SDZ001>005-009-010-012>017-212100-
NORTHWEST AND NORTH CENTRAL SOUTH DAKOTA

CITY           SKY/WX    TMP DP  RH WIND       PRES   REMARKS
FAITH            N/A     80  45  28 S21G29    29.71
MOBRIDGE       SUNNY     82  47  29 S24       29.70F
$$

SDZ012>016-024>037-041>051-057-063-072>074-212100-
SOUTHWEST AND SOUTH CENTRAL SOUTH DAKOTA

CITY           SKY/WX    TMP DP  RH WIND       PRES   REMARKS
RAPID CTY ARPT SUNNY     82  44  26 S17       29.75F
PIERRE         SUNNY     84  39  20 S28G36    29.77F
CUSTER         SUNNY     71  37  28 SW12G25   29.89F
ELLSWORTH AFB  SUNNY     82  44  26 SW15G21   29.74F
PHILIP         SUNNY     82  48  30 S20G26    29.74F
PINE RIDGE     SUNNY     78  48  34 S20       29.82F
SPEARFISH      FAIR      77  43  29 SW15G26   29.77F
WINNER         FAIR      82  37  20 S26G39    29.85F
$$

SDZ004>011-016>023-039-040-212100-
NORTHEAST SOUTH DAKOTA

CITY           SKY/WX    TMP DP  RH WIND       PRES   REMARKS
ABERDEEN       SUNNY     78  43  28 S17G26    29.84F
WATERTOWN      SUNNY     73  42  32 S20G26    29.94F
$$

SDZ017-020-022-023-036>040-048>070-212100-
SOUTHEAST SOUTH DAKOTA

CITY           SKY/WX    TMP DP  RH WIND       PRES   REMARKS
SIOUX FALLS    SUNNY     73  44  35 S20G25    29.98F
HURON          SUNNY     80  41  24 S17G25    29.88F
CHAMBERLAIN    SUNNY     80  36  20 S23G33    29.86F
MITCHELL       SUNNY     81  44  27 S15G23    29.91F
YANKTON        SUNNY     79  45  29 S17G25    29.96F
$$

ABBREVIATIONS USED IN REMARKS
   TC - TEMPERATURE IN CELSIUS
  WCI - WIND CHILL INDEX
   HX - HEAT INDEX
  VSB - VISIBILITY




USA.gov is the U.S. government's official web portal to all federal, state and local government web resources and services.